Time,TemperatureF,DewpointF,PressureIn,WindDirection,WindDirectionDegrees,WindSpeedMPH,WindSpeedGustMPH,Humidity,HourlyPrecipIn,Conditions,Clouds,dailyrainin,SoftwareType,DateUTC
2013-05-07 01:00:00,40.0,28.0,-100.00,NE,50,2.0,4.0,61,-99.99,,,0.00,,2013-05-07 07:00:00,
2013-05-07 01:11:00,42.0,31.0,-100.00,SW,220,0.0,5.0,66,-99.99,,,0.00,,2013-05-07 07:11:00,
2013-05-07 01:22:00,42.0,31.0,-100.00,SW,220,0.0,5.0,66,-99.99,,,0.00,,2013-05-07 07:22:00,
2013-05-07 01:31:00,40.0,28.0,-100.00,NE,50,2.0,4.0,61,-99.99,,,0.00,,2013-05-07 07:31:00,
2013-05-07 01:42:00,40.0,28.0,-100.00,NE,50,2.0,4.0,61,-99.99,,,0.00,,2013-05-07 07:42:00,
2013-05-07 01:52:00,40.0,28.0,-100.00,NE,50,2.0,4.0,61,-99.99,,,0.00,,2013-05-07 07:52:00,
2013-05-07 02:11:00,41.0,28.0,-100.00,North,5,1.0,6.0,59,-99.99,,,0.00,,2013-05-07 08:11:00,
2013-05-07 02:21:00,41.0,28.0,-100.00,North,5,1.0,6.0,59,-99.99,,,0.00,,2013-05-07 08:21:00,
2013-05-07 03:00:00,34.0,28.0,-100.00,SSW,200,1.0,3.0,78,-99.99,,,0.00,,2013-05-07 09:00:00,
2013-05-07 03:11:00,35.0,28.0,-100.00,North,-999,0.0,0.0,75,-99.99,,,0.00,,2013-05-07 09:11:00,
2013-05-07 03:22:00,35.0,28.0,-100.00,North,-999,0.0,0.0,75,-99.99,,,0.00,,2013-05-07 09:22:00,
2013-05-07 03:33:00,34.0,28.0,-100.00,SSW,200,1.0,3.0,78,-99.99,,,0.00,,2013-05-07 09:33:00,
2013-05-07 03:42:00,34.0,28.0,-100.00,SSW,200,1.0,3.0,78,-99.99,,,0.00,,2013-05-07 09:42:00,
2013-05-07 03:52:00,34.0,28.0,-100.00,SSW,200,1.0,3.0,78,-99.99,,,0.00,,2013-05-07 09:52:00,
2013-05-07 04:01:00,35.0,29.0,-100.00,South,190,1.0,4.0,78,-99.99,,,0.00,,2013-05-07 10:01:00,
2013-05-07 04:12:00,35.0,29.0,-100.00,WNW,300,0.0,1.0,76,-99.99,,,0.00,,2013-05-07 10:12:00,
2013-05-07 04:23:00,35.0,29.0,-100.00,WNW,300,0.0,1.0,76,-99.99,,,0.00,,2013-05-07 10:23:00,
2013-05-07 04:32:00,35.0,29.0,-100.00,South,190,1.0,4.0,78,-99.99,,,0.00,,2013-05-07 10:32:00,
2013-05-07 04:42:00,35.0,29.0,-100.00,South,190,1.0,4.0,78,-99.99,,,0.00,,2013-05-07 10:42:00,
2013-05-07 04:52:00,35.0,29.0,-100.00,South,190,1.0,4.0,78,-99.99,,,0.00,,2013-05-07 10:52:00,
2013-05-07 05:12:00,33.0,28.0,-100.00,SSW,195,2.0,3.0,83,-99.99,,,0.00,,2013-05-07 11:12:00,
2013-05-07 05:22:00,33.0,28.0,-100.00,SSW,195,2.0,3.0,83,-99.99,,,0.00,,2013-05-07 11:22:00,
2013-05-07 05:32:00,32.0,27.0,-100.00,North,-999,0.0,0.0,84,-99.99,,,0.00,,2013-05-07 11:32:00,
2013-05-07 05:51:00,32.0,27.0,-100.00,North,-999,0.0,0.0,84,-99.99,,,0.00,,2013-05-07 11:51:00,
2013-05-07 06:11:00,32.0,29.0,-100.00,East,90,1.0,1.0,87,-99.99,,,0.00,,2013-05-07 12:11:00,
2013-05-07 06:21:00,32.0,29.0,-100.00,East,90,1.0,1.0,87,-99.99,,,0.00,,2013-05-07 12:21:00,
2013-05-07 06:32:00,33.0,29.0,-100.00,SW,225,1.0,2.0,86,-99.99,,,0.00,,2013-05-07 12:32:00,
2013-05-07 06:42:00,33.0,29.0,-100.00,SW,225,1.0,2.0,86,-99.99,,,0.00,,2013-05-07 12:42:00,
2013-05-07 06:52:00,32.0,28.0,-100.00,SSW,195,3.0,4.0,87,-99.99,,,0.00,,2013-05-07 12:52:00,
2013-05-07 07:02:00,32.0,28.0,-100.00,SSW,195,3.0,4.0,87,-99.99,,,0.00,,2013-05-07 13:02:00,
2013-05-07 07:11:00,29.0,26.0,-100.00,NNE,30,0.0,1.0,88,-99.99,,,0.00,,2013-05-07 13:11:00,
2013-05-07 07:21:00,29.0,26.0,-100.00,NNE,30,0.0,1.0,88,-99.99,,,0.00,,2013-05-07 13:21:00,
2013-05-07 07:32:00,31.0,28.0,-100.00,ENE,60,2.0,2.0,89,-99.99,,,0.00,,2013-05-07 13:32:00,
2013-05-07 07:42:00,31.0,28.0,-100.00,ENE,60,2.0,2.0,89,-99.99,,,0.00,,2013-05-07 13:42:00,
2013-05-07 07:52:00,33.0,30.0,-100.00,SSW,205,3.0,4.0,86,-99.99,,,0.00,,2013-05-07 13:52:00,
2013-05-07 08:02:00,33.0,30.0,-100.00,SSW,205,3.0,4.0,86,-99.99,,,0.00,,2013-05-07 14:02:00,
2013-05-07 08:11:00,34.0,30.0,-100.00,East,80,1.0,4.0,87,-99.99,,,0.00,,2013-05-07 14:11:00,
2013-05-07 08:21:00,34.0,30.0,-100.00,East,80,1.0,4.0,87,-99.99,,,0.00,,2013-05-07 14:21:00,
2013-05-07 08:31:00,36.0,31.0,-100.00,SSW,195,3.0,4.0,82,-99.99,,,0.00,,2013-05-07 14:31:00,
2013-05-07 08:42:00,36.0,31.0,-100.00,SSW,195,3.0,4.0,82,-99.99,,,0.00,,2013-05-07 14:42:00,
2013-05-07 08:52:00,37.0,31.0,-100.00,SSW,200,1.0,2.0,78,-99.99,,,0.00,,2013-05-07 14:52:00,
2013-05-07 09:01:00,37.0,31.0,-100.00,SSW,200,1.0,2.0,78,-99.99,,,0.00,,2013-05-07 15:01:00,
2013-05-07 09:12:00,39.0,30.0,-100.00,SW,225,1.0,1.0,68,-99.99,,,0.00,,2013-05-07 15:12:00,
2013-05-07 09:21:00,39.0,30.0,-100.00,SW,225,1.0,1.0,68,-99.99,,,0.00,,2013-05-07 15:21:00,
2013-05-07 09:33:00,41.0,32.0,-100.00,South,190,3.0,4.0,71,-99.99,,,-99.99,,2013-05-07 15:33:00,
2013-05-07 09:42:00,41.0,32.0,-100.00,South,190,3.0,4.0,71,-99.99,,,-99.99,,2013-05-07 15:42:00,
2013-05-07 09:53:00,41.0,32.0,-100.00,South,190,3.0,4.0,71,-99.99,,,-99.99,,2013-05-07 15:53:00,
2013-05-07 12:31:00,58.0,27.0,-100.00,NW,310,9.0,13.0,31,-99.99,,,0.00,,2013-05-07 18:31:00,
2013-05-07 12:41:00,58.0,27.0,-100.00,NW,310,9.0,13.0,31,-99.99,,,0.00,,2013-05-07 18:41:00,
2013-05-07 12:51:00,59.0,22.0,-100.00,NW,310,6.0,14.0,24,-99.99,,,0.00,,2013-05-07 18:51:00,
2013-05-07 13:02:00,59.0,22.0,-100.00,NW,310,6.0,14.0,24,-99.99,,,0.00,,2013-05-07 19:02:00,
2013-05-07 13:11:00,59.0,25.0,-100.00,WNW,295,9.0,12.0,27,-99.99,,,0.00,,2013-05-07 19:11:00,
2013-05-07 13:21:00,59.0,25.0,-100.00,WNW,295,9.0,12.0,27,-99.99,,,0.00,,2013-05-07 19:21:00,
2013-05-07 13:52:00,59.0,23.0,-100.00,West,260,7.0,14.0,24,-99.99,,,0.00,,2013-05-07 19:52:00,
2013-05-07 14:02:00,59.0,23.0,-100.00,West,260,7.0,14.0,24,-99.99,,,0.00,,2013-05-07 20:02:00,
2013-05-07 14:11:00,59.0,25.0,-100.00,West,270,11.0,17.0,27,-99.99,,,0.00,,2013-05-07 20:11:00,
2013-05-07 14:21:00,59.0,25.0,-100.00,West,270,11.0,17.0,27,-99.99,,,0.00,,2013-05-07 20:21:00,
2013-05-07 14:32:00,59.0,32.0,-100.00,NW,305,9.0,14.0,36,-99.99,,,0.00,,2013-05-07 20:32:00,
2013-05-07 14:51:00,59.0,30.0,-100.00,WNW,300,9.0,14.0,33,-99.99,,,0.00,,2013-05-07 20:51:00,
2013-05-07 15:01:00,59.0,30.0,-100.00,WNW,300,9.0,14.0,33,-99.99,,,0.00,,2013-05-07 21:01:00,
2013-05-07 15:11:00,59.0,29.0,-100.00,NW,310,15.0,21.0,33,-99.99,,,0.00,,2013-05-07 21:11:00,
2013-05-07 15:21:00,59.0,29.0,-100.00,NW,310,15.0,21.0,33,-99.99,,,0.00,,2013-05-07 21:21:00,
2013-05-07 15:32:00,61.0,30.0,-100.00,North,5,4.0,-999.0,31,-99.99,,,0.00,,2013-05-07 21:32:00,
2013-05-07 15:42:00,61.0,30.0,-100.00,North,5,4.0,-999.0,31,-99.99,,,0.00,,2013-05-07 21:42:00,
2013-05-07 15:52:00,63.0,30.0,-100.00,ESE,110,5.0,11.0,29,-99.99,,,0.00,,2013-05-07 21:52:00,
2013-05-07 16:02:00,63.0,30.0,-100.00,ESE,110,5.0,11.0,29,-99.99,,,0.00,,2013-05-07 22:02:00,
2013-05-07 16:13:00,62.0,31.0,-100.00,NE,50,4.0,12.0,31,-99.99,,,0.00,,2013-05-07 22:13:00,
2013-05-07 16:22:00,62.0,31.0,-100.00,NE,50,4.0,12.0,31,-99.99,,,0.00,,2013-05-07 22:22:00,
2013-05-07 16:32:00,63.0,30.0,-100.00,NE,35,9.0,14.0,28,-99.99,,,0.00,,2013-05-07 22:32:00,
2013-05-07 16:42:00,63.0,30.0,-100.00,NE,35,9.0,14.0,28,-99.99,,,0.00,,2013-05-07 22:42:00,
2013-05-07 16:52:00,62.0,29.0,-100.00,North,355,4.0,9.0,29,-99.99,,,0.00,,2013-05-07 22:52:00,
2013-05-07 17:02:00,62.0,29.0,-100.00,North,355,4.0,9.0,29,-99.99,,,0.00,,2013-05-07 23:02:00,
2013-05-07 17:12:00,60.0,29.0,-100.00,NNE,20,9.0,16.0,30,-99.99,,,0.00,,2013-05-07 23:12:00,
2013-05-07 17:21:00,60.0,29.0,-100.00,NNE,20,9.0,16.0,30,-99.99,,,0.00,,2013-05-07 23:21:00,
2013-05-07 17:32:00,61.0,29.0,-100.00,North,350,10.0,15.0,30,-99.99,,,0.00,,2013-05-07 23:32:00,
2013-05-07 17:41:00,61.0,29.0,-100.00,North,350,10.0,15.0,30,-99.99,,,0.00,,2013-05-07 23:41:00,
2013-05-07 17:52:00,60.0,28.0,-100.00,NNE,15,12.0,17.0,29,-99.99,,,0.00,,2013-05-07 23:52:00,
2013-05-07 18:01:00,60.0,28.0,-100.00,NNE,15,12.0,17.0,29,-99.99,,,0.00,,2013-05-08 00:01:00,
2013-05-07 18:02:00,61.0,26.0,-100.00,North,0,11.0,16.0,27,-99.99,,,0.00,,2013-05-08 00:02:00,
2013-05-07 18:11:00,61.0,27.0,-100.00,North,10,6.0,18.0,27,-99.99,,,-99.99,,2013-05-08 00:11:00,
2013-05-07 18:21:00,61.0,27.0,-100.00,North,10,6.0,18.0,27,-99.99,,,-99.99,,2013-05-08 00:21:00,
2013-05-07 18:32:00,61.0,26.0,-100.00,North,0,11.0,16.0,27,-99.99,,,0.00,,2013-05-08 00:32:00,
2013-05-07 18:41:00,61.0,26.0,-100.00,North,0,11.0,16.0,27,-99.99,,,0.00,,2013-05-08 00:41:00,
2013-05-07 18:51:00,61.0,26.0,-100.00,North,0,11.0,16.0,27,-99.99,,,0.00,,2013-05-08 00:51:00,
2013-05-07 19:11:00,61.0,28.0,-100.00,NE,45,7.0,12.0,28,-99.99,,,0.00,,2013-05-08 01:11:00,
2013-05-07 19:21:00,61.0,28.0,-100.00,NE,45,7.0,12.0,28,-99.99,,,0.00,,2013-05-08 01:21:00,
2013-05-07 19:31:00,59.0,29.0,-100.00,NNE,30,10.0,16.0,31,-99.99,,,0.00,,2013-05-08 01:31:00,
2013-05-07 19:42:00,59.0,29.0,-100.00,NNE,30,10.0,16.0,31,-99.99,,,0.00,,2013-05-08 01:42:00,
2013-05-07 19:52:00,58.0,29.0,-100.00,NE,35,11.0,18.0,33,-99.99,,,0.00,,2013-05-08 01:52:00,
2013-05-07 20:01:00,58.0,29.0,-100.00,NE,35,11.0,18.0,33,-99.99,,,0.00,,2013-05-08 02:01:00,
2013-05-07 20:12:00,57.0,29.0,-100.00,NE,40,9.0,16.0,33,-99.99,,,0.00,,2013-05-08 02:12:00,
2013-05-07 20:22:00,57.0,29.0,-100.00,NE,40,9.0,16.0,33,-99.99,,,0.00,,2013-05-08 02:22:00,
2013-05-07 20:31:00,56.0,28.0,-100.00,NE,45,13.0,18.0,34,-99.99,,,0.00,,2013-05-08 02:31:00,
2013-05-07 20:42:00,56.0,28.0,-100.00,NE,45,13.0,18.0,34,-99.99,,,0.00,,2013-05-08 02:42:00,
2013-05-07 20:52:00,54.0,30.0,-100.00,NE,35,8.0,19.0,39,-99.99,,,0.00,,2013-05-08 02:52:00,
2013-05-07 21:01:00,54.0,30.0,-100.00,NE,35,8.0,19.0,39,-99.99,,,0.00,,2013-05-08 03:01:00,
2013-05-07 21:11:00,53.0,30.0,-100.00,NE,35,9.0,15.0,41,-99.99,,,0.00,,2013-05-08 03:11:00,
2013-05-07 21:21:00,53.0,30.0,-100.00,NE,35,9.0,15.0,41,-99.99,,,0.00,,2013-05-08 03:21:00,
2013-05-07 21:32:00,53.0,31.0,-100.00,NE,35,11.0,17.0,43,-99.99,,,0.00,,2013-05-08 03:32:00,
2013-05-07 21:43:00,53.0,31.0,-100.00,NE,35,11.0,17.0,43,-99.99,,,0.00,,2013-05-08 03:43:00,
2013-05-07 21:52:00,52.0,31.0,-100.00,NE,35,9.0,16.0,45,-99.99,,,0.00,,2013-05-08 03:52:00,
2013-05-07 22:00:00,50.0,32.0,-100.00,East,95,4.0,6.0,49,-99.99,,,0.00,,2013-05-08 04:00:00,
2013-05-07 22:02:00,52.0,31.0,-100.00,NE,35,9.0,16.0,45,-99.99,,,0.00,,2013-05-08 04:02:00,
2013-05-07 22:12:00,52.0,32.0,-100.00,NE,55,6.0,16.0,46,-99.99,,,0.00,,2013-05-08 04:12:00,
2013-05-07 22:22:00,52.0,32.0,-100.00,NE,55,6.0,16.0,46,-99.99,,,0.00,,2013-05-08 04:22:00,
2013-05-07 22:33:00,50.0,32.0,-100.00,East,95,4.0,6.0,49,-99.99,,,0.00,,2013-05-08 04:33:00,
2013-05-07 22:42:00,50.0,32.0,-100.00,East,95,4.0,6.0,49,-99.99,,,0.00,,2013-05-08 04:42:00,
2013-05-07 22:52:00,50.0,32.0,-100.00,East,95,4.0,6.0,49,-99.99,,,0.00,,2013-05-08 04:52:00,
2013-05-07 23:12:00,49.0,32.0,-100.00,East,95,4.0,9.0,51,-99.99,,,0.00,,2013-05-08 05:12:00,
2013-05-07 23:22:00,49.0,32.0,-100.00,East,95,4.0,9.0,51,-99.99,,,0.00,,2013-05-08 05:22:00,
2013-05-07 23:32:00,48.0,32.0,-100.00,NE,45,2.0,6.0,52,-99.99,,,0.00,,2013-05-08 05:32:00,
2013-05-07 23:42:00,48.0,32.0,-100.00,NE,45,2.0,6.0,52,-99.99,,,0.00,,2013-05-08 05:42:00,
2013-05-07 23:52:00,48.0,32.0,-100.00,NE,45,2.0,6.0,52,-99.99,,,0.00,,2013-05-08 05:52:00,